Location: D�rnast
(49.6426°N, 11.9755°E)
Time: 02:46:43
(UTC+00:00)

Cosmos 1626 - Pass Details

Date: 24 January 2021
Orbit: 489 x 494 km, 82.5° (Epoch: 24 February)

Event Time Altitude Azimuth Distance (km) Brightness Sun altitude
Rises 16:42:48 0° 212° (SSW) 2,565 6.7 -7.9°
Reaches altitude 10° 16:45:04 10° 223° (SW) 1,688 5.9 -8.3°
Maximum altitude 16:48:24 31° 287° (WNW) 887 4.0 -8.8°
Drops below altitude 10° 16:51:45 10° 351° (N) 1,698 4.7 -9.3°
Sets 16:54:02 0° 2° (N) 2,585 5.5 -9.7°
